Погода в Волчанске

Россия / Свердловская область     59°56′05″N   60°04′43″E
темп.,
°C
ветер,
м/с
пор.,
м/с
влажн.,
%
обл.,
%
осадки,
мм/ч
давл.,
гПа
погр.,
м
19 сентября, вс
вс1923:00+2зсз3785100 0.0 1006420
02:00+1зсз2689100 0.0 1006193
05:000зсз378896 0.0 1008196
08:000зсз387853 0.0 1008321
11:00+4сз45555 0.0 1009817
14:00+6сз45505 0.0 10101139
17:00+5сз455898 0.0 1012999
20:00+2сз257661 0.0 1015438
20 сентября, пн
пн2023:000зсз269098 0.0 1016131
02:00−1зсз229248 0.0 101846
05:00−1зсз249364 0.0 102081
08:00+1ссз267993 0.0 1022249
11:00+4с4868100 0.1 10241315
14:00+4с3868100 0.0 10261291
17:00+5с2764100 0.0 10271348
20:00+1сз22865 0.0 102813
21 сентября, вт
вт2123:00−1зсз219323 0.0 102915
02:00−1з2290100 0.0 102927
05:00−2з249699 0.0 102882
08:00−1з249111 0.0 1027127
11:00+5зсз236067 0.0 1026679
14:00+7сз2353100 0.0 1024868
17:00+6сз236194 0.0 1024832
20:00+1зсз22918 0.0 102428
22 сентября, ср
ср2223:000зсз11935 0.0 102514
02:00−1зсз11936 0.0 102412
05:00−1сз119375 0.0 102510
08:00+2сз1282100 0.0 102589
11:00+4с1283100 0.0 1025485
14:00+4св1289100 0.0 1026292
17:00+4с1289100 0.0 1026247
20:00+3ссз119398 0.0 102622
23 сентября, чт
чт2323:00+3сз1186100 0.0 102710
02:00+3сз1185100 0.0 102711
05:00+3с1185100 0.0 102815
08:00+2ссв12906 0.0 102961
11:00+7в236967 0.0 1029904
14:00+6вюв3370100 0.1 1030694
17:00+7юв2365100 0.1 1029691
20:00+4ююв2679100 0.0 1030204